Location: Big Meadows
(38.5260°N, 78.4400°W)
Time: 16:49:12
(UTC-05:00)

Amateur Radio Satellites - All Passes

Search period start: 07 February 2016 16:19
Search period end: 08 February 2016 16:19
Location: Big Meadows, 38.5260°N, 78.4400°W

Satellite Date Start Highest point End Downlink Frequencies (MHz)
Time Altitude Azimuth
AO-7 07 Feb 16:19:29 16:26:54 35° 262° (W) 16:34:23 29.400- 29.500
MOZHAYETS 4 07 Feb 16:19:55 16:24:34 75° 102° (ESE) 16:29:13
SO-50 07 Feb 16:21:38 16:22:57 11° 254° (WSW) 16:24:16 436.795
ISS 07 Feb 16:27:22 16:30:32 54° 137° (SE) 16:33:43 145.825
Cosmos 2504 07 Feb 16:36:06 16:44:50 80° 82° (E) 16:52:56 435.465 / 435.565
STARS 07 Feb 16:36:51 16:41:03 48° 287° (WNW) 16:45:14 437.465
KKS-1 07 Feb 16:47:21 16:50:41 21° 293° (WNW) 16:54:01 437.445
CUBESAT XI-V 07 Feb 16:54:23 16:57:25 17° 92° (E) 17:00:25 437.345
LilacSat-2 07 Feb 16:56:46 16:59:23 18° 69° (ENE) 17:02:01 437.200
BEESAT 3 07 Feb 17:09:34 17:12:55 27° 113° (ESE) 17:16:19 437.485
HORYU 2 07 Feb 17:12:52 17:14:52 13° 268° (W) 17:16:52 437.375
YUBILEINY 07 Feb 17:13:39 17:17:22 13° 285° (WNW) 17:21:05 435.215
Cosmos 2491 07 Feb 17:13:58 17:21:04 27° 291° (WNW) 17:28:12 435.465 / 435.565
CUTE-I 07 Feb 17:15:42 17:20:45 46° 71° (ENE) 17:25:50 437.470
BRITE-PL 07 Feb 17:20:07 17:24:54 29° 68° (ENE) 17:29:37 437.365/2234.400
Cubesat XI-IV 07 Feb 17:28:22 17:33:35 61° 73° (ENE) 17:38:51 437.490
BEESAT 2 07 Feb 17:28:51 17:32:18 28° 113° (ESE) 17:35:46 435.950
O/OREOS (USA 219) 07 Feb 17:29:40 17:33:02 20° 58° (ENE) 17:36:22 437.305
RS-15 07 Feb 17:39:51 17:47:45 19° 13° (NNE) 17:55:51 29.354- 29.394
HO-68 07 Feb 17:42:00 17:44:32 12° 52° (NE) 17:47:03 435.675
MOZHAYETS 4 07 Feb 17:59:52 18:01:05 11° 298° (WNW) 18:02:19
ISS 07 Feb 18:04:43 18:07:12 20° 334° (NNW) 18:09:41 145.825
STRAND 1 07 Feb 18:08:38 18:10:47 12° 90° (E) 18:12:56 437.568
CANX-2 07 Feb 18:24:29 18:25:18 10° 63° (ENE) 18:26:07 2200.000
LilacSat-2 07 Feb 18:30:11 18:33:30 28° 263° (W) 18:36:50 437.200
CUBESAT XI-V 07 Feb 18:30:31 18:35:00 45° 288° (WNW) 18:39:27 437.345
Cosmos 2504 07 Feb 18:31:29 18:37:00 19° 282° (WNW) 18:42:21 435.465 / 435.565
DOVE 4 07 Feb 18:34:02 18:38:45 37° 72° (ENE) 18:43:17 437.250
GOMX 1 07 Feb 18:38:50 18:44:18 79° 77° (ENE) 18:49:36 467.674
GONETS M04 07 Feb 18:43:11 18:48:24 17° 63° (ENE) 18:53:36
BEESAT 3 07 Feb 18:47:19 18:50:38 25° 309° (NW) 18:53:58 437.485
CUTE-I 07 Feb 18:57:06 19:01:00 21° 267° (W) 19:04:55 437.470
BRITE-PL 07 Feb 18:57:50 19:03:08 39° 263° (W) 19:08:24 437.365/2234.400
AIST 2 07 Feb 19:03:24 19:07:02 30° 113° (ESE) 19:10:42 435.215
BEESAT 2 07 Feb 19:06:50 19:10:10 24° 310° (NW) 19:13:31 435.950
O/OREOS (USA 219) 07 Feb 19:08:17 19:12:35 40° 255° (WSW) 19:16:52 437.305
Cubesat XI-IV 07 Feb 19:10:58 19:14:03 15° 268° (W) 19:17:08 437.490
CUTE 1.7 + AOD 2 07 Feb 19:12:17 19:16:02 32° 71° (ENE) 19:19:49 437.475
COMPASS 1 07 Feb 19:14:41 19:17:38 19° 68° (ENE) 19:20:36 437.405
SEEDS 07 Feb 19:23:17 19:26:59 32° 72° (ENE) 19:30:45 437.485
HO-68 07 Feb 19:23:49 19:30:54 67° 71° (ENE) 19:38:01 435.675
PCSat 07 Feb 19:37:55 19:42:10 23° 49° (NE) 19:46:24 145.827
PRISM 07 Feb 19:38:15 19:41:57 30° 97° (E) 19:45:37 437.425
AO-85 07 Feb 19:38:27 19:43:25 45° 53° (NE) 19:47:57 145.980
AAUSAT CUBESAT 2 07 Feb 19:44:57 19:48:40 34° 72° (ENE) 19:52:25 437.432
STRAND 1 07 Feb 19:45:17 19:50:26 70° 286° (WNW) 19:55:33 437.568
ZACube-1 07 Feb 19:45:23 19:46:30 11° 64° (ENE) 19:47:36 437.345
CINEMA 3 07 Feb 19:47:27 19:52:10 73° 76° (ENE) 19:56:41 145.822/145.860
Cosmos 2499 07 Feb 19:53:19 19:59:04 19° 64° (ENE) 20:04:31 435.465 / 435.565
RS-15 07 Feb 19:53:21 20:04:46 44° 45° (NE) 20:16:19 29.354- 29.394
FUNcube-1 07 Feb 19:54:46 19:56:51 14° 66° (ENE) 19:58:54 145.935
CANX-2 07 Feb 19:56:25 20:00:35 64° 259° (W) 20:04:47 2200.000
CUBEBUG 2 07 Feb 20:12:08 20:16:19 45° 74° (ENE) 20:20:24 437.445
DOVE 4 07 Feb 20:12:19 20:16:28 24° 265° (W) 20:20:30 437.250
UWE-3 07 Feb 20:18:31 20:22:30 38° 72° (ENE) 20:26:24 435.000/436.395/437.385
GOMX 1 07 Feb 20:20:42 20:22:48 12° 270° (W) 20:24:53 467.674
Oscar 11 07 Feb 20:29:16 20:33:21 46° 73° (ENE) 20:37:29 145.826/435.025
GONETS M04 07 Feb 20:37:42 20:46:33 86° 83° (E) 20:55:24
AIST 2 07 Feb 20:42:05 20:45:32 25° 310° (NW) 20:49:00 435.215
CUTE 1.7 + AOD 2 07 Feb 20:48:59 20:51:57 19° 266° (W) 20:54:56 437.475
COMPASS 1 07 Feb 20:49:18 20:52:59 31° 263° (W) 20:56:43 437.405
SEEDS 07 Feb 20:59:51 21:02:46 18° 267° (W) 21:05:43 437.485
HO-68 07 Feb 21:13:54 21:19:06 21° 267° (W) 21:24:20 435.675
PRISM 07 Feb 21:13:58 21:17:05 21° 293° (WNW) 21:20:11 437.425
ZACube-1 07 Feb 21:18:05 21:22:17 61° 259° (W) 21:26:26 437.345
DELFI C3 07 Feb 21:18:23 21:22:21 87° 258° (WSW) 21:26:21 145.870
AO-85 07 Feb 21:19:51 21:23:31 21° 252° (WSW) 21:26:57 145.980
PCSat 07 Feb 21:20:36 21:25:52 53° 248° (WSW) 21:31:06 145.827
ISS 07 Feb 21:21:17 21:22:23 11° 15° (NNE) 21:23:29 145.825
AAUSAT CUBESAT 2 07 Feb 21:21:32 21:24:16 17° 267° (W) 21:27:01 437.432
FUNcube-1 07 Feb 21:28:37 21:32:42 48° 261° (W) 21:36:45 145.935
AIST 1 07 Feb 21:28:57 21:32:35 25° 75° (ENE) 21:36:11
AISAT 07 Feb 21:40:27 21:42:48 14° 64° (ENE) 21:45:09 437.250
Cosmos 2499 07 Feb 21:44:49 21:53:18 81° 265° (W) 22:01:06 435.465 / 435.565
CUBEBUG 2 07 Feb 21:50:51 21:53:08 14° 267° (W) 21:55:24 437.445
ESTCUBE 1 07 Feb 21:51:25 21:54:40 20° 67° (ENE) 21:57:56 437.505/2401.250
UWE-3 07 Feb 21:56:22 21:59:04 16° 267° (W) 22:01:46 435.000/436.395/437.385
HUMSAT D 07 Feb 21:58:08 22:02:13 75° 259° (WSW) 22:06:18 437.325/437.525
50 SAT 07 Feb 22:01:22 22:04:17 22° 70° (ENE) 22:07:12 437.505
ANTELSAT 07 Feb 22:05:15 22:09:04 29° 97° (E) 22:12:55 437.575/2403.000
UKube-1 07 Feb 22:05:46 22:09:09 23° 68° (ENE) 22:12:33 .
RS-15 07 Feb 22:05:54 22:17:49 63° 247° (WSW) 22:29:50 29.354- 29.394
CUBEBUG 1 07 Feb 22:06:14 22:09:32 21° 67° (ENE) 22:12:50 437.445
Oscar 11 07 Feb 22:07:31 22:09:43 14° 268° (W) 22:11:57 145.826/435.025
DX 1 07 Feb 22:12:48 22:16:41 32° 70° (ENE) 22:20:36 434.975-435.025
TIGRISAT 07 Feb 22:12:54 22:16:51 34° 98° (E) 22:20:49 435.000
SPROUT 07 Feb 22:22:49 22:22:55 10° 63° (ENE) 22:23:00 437.525
POPSAT HIP 1 07 Feb 22:35:01 22:37:12 14° 92° (E) 22:39:21 437.405
GONETS M04 07 Feb 22:36:52 22:42:08 18° 282° (WNW) 22:47:26
NANOSAT C BR1 07 Feb 22:40:56 22:43:31 16° 93° (E) 22:46:05 145.865
DUCHIFAT 1 07 Feb 22:43:25 22:46:02 16° 93° (E) 22:48:39 145.980
QB50P1 07 Feb 22:47:08 22:50:13 20° 94° (E) 22:53:16 145.935-145.965
UNISAT 6 07 Feb 22:56:23 23:00:41 70° 285° (WNW) 23:05:04 437.425
ISS 07 Feb 22:56:26 22:59:32 41° 34° (NNE) 23:02:37 145.825
VELOX 1 07 Feb 22:58:04 23:02:33 86° 261° (W) 23:07:03 145.980
AIST 1 07 Feb 23:06:36 23:10:04 23° 271° (W) 23:13:28
AISAT 07 Feb 23:14:27 23:18:49 53° 260° (W) 23:23:13 437.250
ESTCUBE 1 07 Feb 23:27:02 23:31:12 37° 262° (W) 23:35:26 437.505/2401.250
50 SAT 07 Feb 23:35:25 23:38:14 21° 265° (W) 23:41:05 437.505
POLYITAN 1 07 Feb 23:37:50 23:42:03 81° 103° (ESE) 23:46:15 437.675
QB50P2 07 Feb 23:38:37 23:42:51 85° 103° (ESE) 23:47:03 145.880/145.840
UKube-1 07 Feb 23:41:16 23:45:03 29° 263° (W) 23:48:51 .
Cosmos 2499 07 Feb 23:41:21 23:44:49 13° 285° (WNW) 23:48:12 435.465 / 435.565
CUBEBUG 1 07 Feb 23:41:34 23:45:36 34° 263° (W) 23:49:39 437.445
ANTELSAT 07 Feb 23:42:16 23:45:38 22° 291° (WNW) 23:49:02 437.575/2403.000
DX 1 07 Feb 23:49:36 23:52:55 21° 265° (W) 23:56:15 434.975-435.025
TIGRISAT 07 Feb 23:50:13 23:53:19 20° 292° (WNW) 23:56:26 435.000
SPROUT 07 Feb 23:53:59 23:58:17 72° 259° (W) 00:02:35 437.525
BUGSAT 1 07 Feb 23:54:16 23:58:15 56° 100° (E) 00:02:11 437.445
POPSAT HIP 1 08 Feb 00:09:13 00:13:12 44° 287° (WNW) 00:17:10 437.405
TISAT 1 08 Feb 00:12:08 00:16:20 66° 75° (ENE) 00:20:32 437.305
NANOSAT C BR1 08 Feb 00:15:31 00:19:24 38° 288° (WNW) 00:23:16 145.865
DUCHIFAT 1 08 Feb 00:18:02 00:21:53 37° 288° (WNW) 00:25:44 145.980
QB50P1 08 Feb 00:22:20 00:26:02 31° 289° (WNW) 00:29:43 145.935-145.965
RS-15 08 Feb 00:24:43 00:27:44 11° 266° (W) 00:30:45 29.354- 29.394
ISS 08 Feb 00:33:26 00:35:46 18° 229° (SW) 00:38:05 145.825
SWISSCUBE 08 Feb 00:41:55 00:45:57 28° 68° (ENE) 00:50:00 437.505
CUSAT 1 08 Feb 00:48:13 00:54:03 24° 83° (E) 01:00:04 437.405
DANDE 08 Feb 01:03:25 01:08:00 17° 79° (ENE) 01:12:55 436.750
ITUPSAT 1 08 Feb 01:16:45 01:21:25 57° 73° (ENE) 01:26:07 437.325
BEESAT 08 Feb 01:26:41 01:31:26 75° 74° (ENE) 01:36:12 436.000
PHONESAT 2.4 08 Feb 01:27:19 01:30:10 28° 152° (SSE) 01:33:02 2401.200-2431.200
Cosmos 2491 08 Feb 01:27:49 01:35:04 28° 70° (ENE) 01:42:17 435.465 / 435.565
Oscar 19 08 Feb 01:28:47 01:33:51 57° 101° (E) 01:38:52 437.125/150
BEESAT 3 08 Feb 01:29:21 01:31:12 13° 44° (NE) 01:33:02 437.485
BUGSAT 1 08 Feb 01:32:02 01:33:08 11° 296° (WNW) 01:34:13 437.445
JAS-2 08 Feb 01:35:09 01:40:32 43° 97° (E) 01:45:31 435.910
Gurwin Techsat 1B 08 Feb 01:41:43 01:46:15 28° 96° (E) 01:50:45 435.225
BEESAT 2 08 Feb 01:49:16 01:51:19 13° 45° (NE) 01:53:21 435.950
STARS 08 Feb 01:58:55 02:00:14 11° 63° (ENE) 02:01:34 437.465
KKS-1 08 Feb 02:07:12 02:10:54 26° 69° (ENE) 02:14:36 437.445
YUBILEINY 08 Feb 02:17:56 02:24:35 25° 81° (E) 02:31:15 435.215
SWISSCUBE 08 Feb 02:19:36 02:23:40 28° 264° (W) 02:27:46 437.505
CUSAT 1 08 Feb 02:27:48 02:35:33 73° 281° (W) 02:43:43 437.405
AO-7 08 Feb 02:31:25 02:35:59 16° 90° (E) 02:40:32 29.400- 29.500
ITAMSAT 1 08 Feb 02:32:37 02:37:38 44° 99° (E) 02:42:35 435.822/435.867
DANDE 08 Feb 02:42:14 02:49:37 88° 101° (E) 02:58:10 436.750
ITUPSAT 1 08 Feb 02:57:15 02:59:36 14° 268° (W) 03:01:58 437.325
PHONESAT 2.4 08 Feb 03:03:59 03:07:17 80° 347° (NNW) 03:10:33 2401.200-2431.200
BEESAT 3 08 Feb 03:05:26 03:09:22 65° 242° (WSW) 03:13:15 437.485
Oscar 19 08 Feb 03:09:29 03:12:40 17° 297° (WNW) 03:15:51 437.125/150
MOZHAYETS 4 08 Feb 03:20:12 03:24:40 58° 74° (ENE) 03:29:10
JAS-2 08 Feb 03:20:56 03:25:16 23° 297° (WNW) 03:29:22 435.910
Gurwin Techsat 1B 08 Feb 03:21:25 03:26:11 34° 291° (WNW) 03:30:56 435.225
Cosmos 2491 08 Feb 03:23:51 03:32:24 60° 269° (W) 03:40:57 435.465 / 435.565
Cosmos 2504 08 Feb 03:25:04 03:27:40 12° 74° (ENE) 03:30:18 435.465 / 435.565
BEESAT 2 08 Feb 03:25:39 03:29:36 61° 242° (WSW) 03:33:30 435.950
AIST 2 08 Feb 03:26:40 03:29:11 15° 45° (NE) 03:31:41 435.215
HORYU 2 08 Feb 03:28:38 03:29:49 11° 91° (E) 03:30:59 437.375
STARS 08 Feb 03:31:39 03:36:02 67° 259° (WSW) 03:40:26 437.465
KKS-1 08 Feb 03:43:36 03:47:23 27° 264° (W) 03:51:11 437.445
CUBESAT XI-V 08 Feb 03:57:01 03:59:38 15° 64° (ENE) 04:02:15 437.345
YUBILEINY 08 Feb 04:11:53 04:20:33 66° 280° (W) 04:29:22 435.215
ITAMSAT 1 08 Feb 04:12:49 04:16:47 22° 295° (WNW) 04:20:44 435.822/435.867
CUSAT 1 08 Feb 04:14:51 04:19:11 15° 299° (WNW) 04:23:34 437.405
AO-7 08 Feb 04:21:23 04:29:47 87° 110° (ESE) 04:38:05 29.400- 29.500
M-CUBED/EXP-1 PRIME 08 Feb 04:28:20 04:31:41 71° 107° (ESE) 04:35:14 437.505
DANDE 08 Feb 04:28:20 04:33:47 20° 298° (WNW) 04:39:38 436.750
AUBIESAT-1 08 Feb 04:40:03 04:43:28 83° 105° (ESE) 04:47:05 437.475
PHONESAT 2.4 08 Feb 04:41:28 04:44:43 60° 5° (N) 04:47:56 2401.200-2431.200
SO-50 08 Feb 04:51:06 04:55:29 35° 114° (ESE) 04:59:58 436.795
MOZHAYETS 4 08 Feb 05:00:25 05:02:11 12° 269° (W) 05:03:59
HORYU 2 08 Feb 05:02:22 05:06:46 62° 286° (WNW) 05:11:09 437.375
AIST 2 08 Feb 05:03:59 05:08:01 54° 243° (WSW) 05:12:01 435.215
Cosmos 2504 08 Feb 05:10:53 05:19:15 70° 93° (E) 05:28:04 435.465 / 435.565
STRAND 1 08 Feb 05:22:51 05:26:05 17° 63° (ENE) 05:29:18 437.568
CUBESAT XI-V 08 Feb 05:31:56 05:36:31 55° 260° (W) 05:41:09 437.345
CUTE-I 08 Feb 05:34:55 05:38:52 21° 94° (E) 05:42:49 437.470
Cubesat XI-IV 08 Feb 05:47:31 05:52:04 27° 96° (E) 05:56:34 437.490
LilacSat-2 08 Feb 06:04:47 06:08:10 30° 97° (E) 06:11:32 437.200
AO-7 08 Feb 06:15:45 06:21:30 21° 307° (NW) 06:27:14 29.400- 29.500
YUBILEINY 08 Feb 06:16:37 06:19:17 11° 302° (WNW) 06:21:59 435.215
PHONESAT 2.4 08 Feb 06:18:48 06:22:01 59° 201° (SSW) 06:25:14 2401.200-2431.200
PRISM 08 Feb 06:27:04 06:30:01 19° 67° (ENE) 06:33:00 437.425
SO-50 08 Feb 06:31:43 06:36:00 30° 311° (NW) 06:40:21 436.795
GOMX 1 08 Feb 06:43:41 06:47:11 22° 94° (E) 06:50:31 467.674
HO-68 08 Feb 06:56:38 06:59:03 12° 88° (E) 07:01:28 435.675
STRAND 1 08 Feb 06:59:46 07:04:46 56° 259° (W) 07:09:49 437.568
BRITE-PL 08 Feb 07:04:40 07:09:31 86° 103° (ESE) 07:13:57 437.365/2234.400
Cosmos 2504 08 Feb 07:06:42 07:13:25 25° 293° (WNW) 07:20:23 435.465 / 435.565
CUTE-I 08 Feb 07:13:59 07:19:07 47° 289° (WNW) 07:24:14 437.470
Cubesat XI-IV 08 Feb 07:27:17 07:32:09 36° 291° (WNW) 07:37:00 437.490
LilacSat-2 08 Feb 07:39:51 07:42:14 16° 292° (WNW) 07:44:37 437.200
O/OREOS (USA 219) 08 Feb 07:40:23 07:44:06 26° 103° (ESE) 07:47:52 437.305
CANX-2 08 Feb 07:43:23 07:46:52 24° 95° (E) 07:50:19 2200.000
GONETS M04 08 Feb 07:43:54 07:49:29 19° 79° (E) 07:55:04
CINEMA 3 08 Feb 07:44:50 07:47:31 17° 93° (E) 07:50:12 145.822/145.860
PHONESAT 2.4 08 Feb 07:57:19 07:58:52 13° 215° (SW) 08:00:25 2401.200-2431.200
PRISM 08 Feb 08:01:23 08:05:08 32° 263° (W) 08:08:54 437.425
DOVE 4 08 Feb 08:12:02 08:16:18 70° 285° (WNW) 08:20:25 437.250
GOMX 1 08 Feb 08:21:29 08:25:17 28° 291° (WNW) 08:28:55 467.674
Cosmos 2499 08 Feb 08:29:28 08:34:16 16° 77° (ENE) 08:39:07 435.465 / 435.565
COMPASS 1 08 Feb 08:33:11 08:37:13 42° 98° (E) 08:41:12 437.405
CUTE 1.7 + AOD 2 08 Feb 08:33:45 08:38:03 81° 102° (ESE) 08:42:20 437.475
HO-68 08 Feb 08:40:29 08:47:44 80° 106° (ESE) 08:54:56 435.675
SEEDS 08 Feb 08:43:38 08:47:54 79° 100° (E) 08:52:10 437.485
DELFI C3 08 Feb 08:59:27 09:01:30 14° 92° (E) 09:03:33 145.870
ANTELSAT 08 Feb 09:03:17 09:06:39 22° 69° (ENE) 09:10:00 437.575/2403.000
AAUSAT CUBESAT 2 08 Feb 09:03:37 09:07:51 80° 103° (ESE) 09:12:02 437.432
ZACube-1 08 Feb 09:08:03 09:11:36 26° 96° (E) 09:15:11 437.345
TIGRISAT 08 Feb 09:10:37 09:14:11 26° 70° (ENE) 09:17:44 435.000
FUNcube-1 08 Feb 09:17:57 09:21:45 32° 98° (E) 09:25:35 145.935
CANX-2 08 Feb 09:19:03 09:22:40 27° 290° (WNW) 09:26:16 2200.000
O/OREOS (USA 219) 08 Feb 09:19:37 09:23:24 27° 299° (WNW) 09:27:14 437.305
CINEMA 3 08 Feb 09:21:02 09:24:47 34° 288° (WNW) 09:28:34 145.822/145.860
NANOSAT C BR1 08 Feb 09:33:40 09:34:43 11° 63° (ENE) 09:35:45 145.865
DUCHIFAT 1 08 Feb 09:35:54 09:37:00 11° 64° (ENE) 09:38:06 145.980
GONETS M04 08 Feb 09:36:30 09:45:11 80° 278° (W) 09:53:56
QB50P1 08 Feb 09:39:29 09:41:33 13° 65° (ENE) 09:43:35 145.935-145.965
CUBEBUG 2 08 Feb 09:40:33 09:44:40 61° 285° (WNW) 09:48:52 437.445
HUMSAT D 08 Feb 09:43:50 09:46:48 19° 94° (E) 09:49:47 437.325/437.525
UWE-3 08 Feb 09:45:19 09:49:30 77° 283° (WNW) 09:53:46 435.000/436.395/437.385
AO-85 08 Feb 09:51:30 09:55:37 23° 109° (ESE) 09:59:53 145.980
Oscar 11 08 Feb 09:53:37 09:57:56 69° 285° (WNW) 10:02:15 145.826/435.025
UNISAT 6 08 Feb 09:53:39 09:58:01 85° 74° (ENE) 10:02:19 437.425
AIST 1 08 Feb 09:57:39 10:00:25 17° 87° (E) 10:03:13
COMPASS 1 08 Feb 10:09:55 10:12:26 16° 294° (WNW) 10:14:56 437.405
Cosmos 2499 08 Feb 10:17:21 10:25:59 86° 96° (E) 10:34:56 435.465 / 435.565
RS-15 08 Feb 10:18:13 10:26:29 25° 101° (E) 10:34:59 29.354- 29.394
PCSat 08 Feb 10:18:31 10:22:48 24° 107° (ESE) 10:27:06 145.827
POLYITAN 1 08 Feb 10:28:57 10:33:02 48° 73° (ENE) 10:37:07 437.675
QB50P2 08 Feb 10:29:40 10:33:47 51° 73° (ENE) 10:37:54 145.880/145.840
HO-68 08 Feb 10:29:46 10:34:37 20° 303° (WNW) 10:39:27 435.675
DELFI C3 08 Feb 10:32:47 10:36:36 41° 287° (WNW) 10:40:25 145.870
ANTELSAT 08 Feb 10:39:28 10:43:13 29° 263° (W) 10:46:59 437.575/2403.000
BUGSAT 1 08 Feb 10:42:36 10:46:22 32° 71° (ENE) 10:50:07 437.445
ZACube-1 08 Feb 10:44:25 10:47:47 24° 290° (WNW) 10:51:11 437.345
TIGRISAT 08 Feb 10:47:14 10:50:48 25° 264° (W) 10:54:21 435.000
VELOX 1 08 Feb 10:50:40 10:53:53 20° 94° (E) 10:57:04 145.980
FUNcube-1 08 Feb 10:54:46 10:57:48 20° 292° (WNW) 11:00:51 145.935
JUGNU 08 Feb 10:56:19 10:58:15 12° 180° (S) 11:00:12 437.505
POPSAT HIP 1 08 Feb 10:59:47 11:04:01 74° 258° (WSW) 11:08:16 437.405
NANOSAT C BR1 08 Feb 11:05:43 11:09:54 64° 258° (WSW) 11:14:06 145.865
AISAT 08 Feb 11:06:26 11:10:21 30° 97° (E) 11:14:14 437.250
50 SAT 08 Feb 11:07:27 11:11:00 36° 98° (E) 11:14:32 437.505
DUCHIFAT 1 08 Feb 11:07:59 11:12:11 63° 259° (W) 11:16:22 145.980
QB50P1 08 Feb 11:12:46 11:16:53 50° 260° (W) 11:21:01 145.935-145.965
HUMSAT D 08 Feb 11:18:47 11:22:30 32° 288° (WNW) 11:26:13 437.325/437.525
ESTCUBE 1 08 Feb 11:20:37 11:25:02 49° 100° (E) 11:29:26 437.505/2401.250
UKube-1 08 Feb 11:29:16 11:33:28 48° 100° (E) 11:37:37 .
AO-85 08 Feb 11:30:39 11:35:49 49° 306° (NW) 11:41:10 145.980
CUBEBUG 1 08 Feb 11:31:16 11:35:30 47° 99° (E) 11:39:41 437.445
AIST 1 08 Feb 11:33:36 11:37:41 37° 282° (WNW) 11:41:47
DX 1 08 Feb 11:37:55 11:42:16 74° 102° (ESE) 11:46:36 434.975-435.025
GONETS M04 08 Feb 11:38:59 11:43:29 15° 299° (WNW) 11:48:02
SPROUT 08 Feb 11:42:21 11:45:36 21° 95° (E) 11:48:51 437.525
JAS-2 08 Feb 11:45:17 11:50:51 23° 63° (ENE) 11:56:06 435.910
DANDE 08 Feb 11:47:34 11:48:56 11° 54° (NE) 11:50:14 436.750
TISAT 1 08 Feb 12:00:07 12:01:18 11° 91° (E) 12:02:29 437.305
PCSat 08 Feb 12:00:45 12:05:54 43° 304° (WNW) 12:11:05 145.827
POLYITAN 1 08 Feb 12:07:13 12:09:06 13° 268° (W) 12:11:00 437.675
QB50P2 08 Feb 12:08:11 12:09:52 12° 268° (W) 12:11:34 145.880/145.840
Cosmos 2499 08 Feb 12:14:14 12:20:14 20° 295° (WNW) 12:26:23 435.465 / 435.565
BUGSAT 1 08 Feb 12:18:48 12:21:47 19° 266° (W) 12:24:48 437.445
RS-15 08 Feb 12:26:18 12:37:25 81° 302° (WNW) 12:49:13 29.354- 29.394
VELOX 1 08 Feb 12:26:26 12:30:26 34° 289° (WNW) 12:34:25 145.980
SRMSAT 08 Feb 12:28:52 12:30:50 12° 177° (S) 12:32:48 437.500
YUBILEINY 08 Feb 12:33:20 12:33:39 10° 57° (ENE) 12:33:58 435.215
50 SAT 08 Feb 12:42:39 12:44:42 14° 293° (WNW) 12:46:45 437.505
AISAT 08 Feb 12:43:15 12:46:40 22° 293° (WNW) 12:50:04 437.250
Oscar 19 08 Feb 12:44:01 12:49:11 72° 75° (ENE) 12:54:21 437.125/150
ESTCUBE 1 08 Feb 12:58:45 13:01:25 16° 295° (WNW) 13:04:05 437.505/2401.250
Gurwin Techsat 1B 08 Feb 13:01:17 13:06:10 39° 70° (ENE) 13:11:04 435.225
UKube-1 08 Feb 13:06:44 13:09:05 15° 296° (WNW) 13:11:26 .
CUSAT 1 08 Feb 13:08:33 13:14:38 82° 80° (E) 13:19:07 437.405
CUBEBUG 1 08 Feb 13:08:54 13:11:23 15° 295° (WNW) 13:13:50 437.445
AO-85 08 Feb 13:16:58 13:17:41 10° 326° (NW) 13:18:24 145.980
SPROUT 08 Feb 13:17:53 13:21:35 29° 290° (WNW) 13:25:17 437.525
ITUPSAT 1 08 Feb 13:19:54 13:22:57 17° 93° (E) 13:25:59 437.325
SO-50 08 Feb 13:24:08 13:28:01 23° 47° (NE) 13:31:47 436.795
DANDE 08 Feb 13:26:36 13:33:49 68° 78° (ENE) 13:39:15 436.750
JAS-2 08 Feb 13:27:29 13:35:16 74° 257° (WSW) 13:42:28 435.910
AO-7 08 Feb 13:28:49 13:34:53 23° 54° (NE) 13:40:57 29.400- 29.500
BEESAT 08 Feb 13:29:03 13:32:41 21° 94° (E) 13:36:18 436.000
TISAT 1 08 Feb 13:33:12 13:37:17 54° 286° (WNW) 13:41:20 437.305
ITAMSAT 1 08 Feb 13:49:06 13:54:10 58° 72° (ENE) 13:59:16 435.822/435.867
SRMSAT 08 Feb 14:18:07 14:19:05 10° 188° (S) 14:20:04 437.500
SWISSCUBE 08 Feb 14:20:16 14:25:06 82° 102° (ESE) 14:29:54 437.505
YUBILEINY 08 Feb 14:23:49 14:32:34 60° 79° (E) 14:41:13 435.215
Oscar 19 08 Feb 14:26:58 14:28:59 12° 270° (W) 14:31:00 437.125/150
Cosmos 2491 08 Feb 14:27:32 14:35:00 33° 85° (E) 14:42:28 435.465 / 435.565
Gurwin Techsat 1B 08 Feb 14:41:55 14:46:11 24° 265° (W) 14:50:29 435.225
RS-15 08 Feb 14:42:44 14:52:02 28° 329° (NNW) 15:01:46 29.354- 29.394
ITUPSAT 1 08 Feb 14:56:23 15:01:01 48° 288° (WNW) 15:05:38 437.325
SO-50 08 Feb 15:04:10 15:08:41 43° 245° (WSW) 15:13:03 436.795
BEESAT 08 Feb 15:06:09 15:10:33 37° 290° (WNW) 15:14:57 436.000
Cosmos 2504 08 Feb 15:06:48 15:13:30 24° 67° (ENE) 15:19:49 435.465 / 435.565
DANDE 08 Feb 15:11:27 15:15:33 17° 282° (WNW) 15:19:08 436.750
M-CUBED/EXP-1 PRIME 08 Feb 15:14:15 15:18:00 74° 72° (ENE) 15:21:30 437.505
MOZHAYETS 4 08 Feb 15:17:54 15:20:42 16° 92° (E) 15:23:29
AO-7 08 Feb 15:18:20 15:26:43 81° 253° (WSW) 15:35:09 29.400- 29.500
JAS-2 08 Feb 15:18:33 15:21:02 12° 272° (W) 15:23:30 435.910
STARS 08 Feb 15:23:06 15:26:38 24° 96° (E) 15:30:09 437.465
AUBIESAT-1 08 Feb 15:25:32 15:29:16 84° 73° (ENE) 15:32:47 437.475
ITAMSAT 1 08 Feb 15:30:57 15:33:59 16° 268° (W) 15:37:02 435.822/435.867
KKS-1 08 Feb 15:35:07 15:39:32 63° 101° (E) 15:43:54 437.445
ISS 08 Feb 15:35:20 15:38:05 26° 133° (SE) 15:40:51 145.825
HORYU 2 08 Feb 15:58:42 16:03:08 81° 259° (W) 16:07:34 437.375
SWISSCUBE 08 Feb 16:01:03 16:02:12 11° 299° (WNW) 16:03:20 437.505
